Simultaneous Nadir Overpasses (SNOs) Predictions

Prediction of SNOs between NOAA-20 and AQUA Satellite Orbit:

Table of predicted SNOs for the next 14.0 days since TLE Epoch: 6/24/2023
Index Date (NOAA-20) Time (NOAA-20) Lat,Lon (NOAA-20) SZA (NOAA-20 ) Date (AQUA) Time (AQUA) Lat,Lon (AQUA) SZA (AQUA ) Distance(km) Time Diff (sec)
1 06/25/2023 03:24:35 -77.02,-168.28 106.87 06/25/2023 03:25:48 -76.68,-166.23 107.16 64.33 73
2 06/25/2023 04:13:35 80.63, 25.60 67.21 06/25/2023 04:13:32 80.63, 25.52 67.22 1.35 3
3 06/27/2023 17:58:19 -80.59, -1.21 112.58 06/27/2023 17:59:08 -80.59, -1.33 112.60 2.23 49
4 06/27/2023 18:49:01 80.65, 166.96 67.28 06/27/2023 18:48:30 80.65, 167.01 67.29 0.92 31
5 06/30/2023 08:33:45 -80.60, 140.14 112.47 06/30/2023 08:34:05 -80.61, 140.20 112.49 1.16 20
6 06/30/2023 09:24:24 80.72, -50.68 67.23 06/30/2023 09:23:25 80.72, -50.81 67.29 2.44 59
7 07/02/2023 22:18:29 80.54, 112.96 67.91 07/02/2023 22:19:39 80.54, 113.12 67.83 3.08 70
8 07/02/2023 23:09:09 -80.66, -77.87 112.41 07/02/2023 23:09:00 -80.66, -77.93 112.40 1.05 9
9 07/05/2023 12:53:52 80.59,-105.13 68.01 07/05/2023 12:54:32 80.59,-105.03 67.97 1.73 40



Historial Predications of SNOs between NOAA-20 and AQUA
